Location: Zagreb
(45.8150°N, 15.9819°E)
Time: 13:47:58
(UTC+02:00)

STARLINK-1713 - Pass Details

Date: 20 September 2020
Orbit: 379 x 380 km, 53.0° (Epoch: 20 October)

Event Time Altitude Azimuth Distance (km) Brightness Sun altitude
Exits shadow 04:22:31 27° 26° (NNE) 776 4.9 -23.9°
Drops below altitude 10° 04:24:18 10° 49° (NE) 1,396 6.7 -23.6°
Sets 04:26:26 0° 58° (ENE) 2,251 8.2 -23.3°
